SCP
-0 -0 -0 -0 -0 -0 -0 0 0 0 0 0 0 0 0 0 0 0 0 0 0 0 0 0 0 0 0 0 0 0 0 0 0 0 0 0 0 0 0 0 0 0 0
-0 -0 -0 -0 0 0 0 0 0 0 0 0 0 0 0 0 0 0 0 0 0 0 0 0 0 0 0 0 0 0 0 0 0 0 0 0 0 0 0 0 0 0 0
-0 -0 0 0 0 0 0 0 0 0 0 0 0 0 0 0 0 0 0 0 0 0 0 0 0 0 0 0 0 0 0 0 0 0 0 0 0 0 0 0 0 0 0
0 0 0 0 0 0 0 0 0 0 0 0 0 0 0 0 0 0 0 0 0 0 0 0 0 0 0 0 0 0 0 0 0 0 0 0 0 0 0 0 0 0 0
0 0 0 0 0 0 0 0 0 0 0 0 0 0 0 0 0 0 0 0 0 0 0 0 0 0 0 0 0 0 0 0 0 0 0 0 0 0 0 0 0 0 0
0 0 0 0 0 0 0 0 0 0 0 0 0 0 0 0 0 0 0 0 0 0 0 0 0 0 0 0 0 0 0 0 0 0 0 0 0 0 0 0 0 0 0
0 0 0 0 0 0 0 0 0 0 0 0 0 0 0 0 0 0 0 0 0 0 0 0 0 0 0 0 0 0 0 0 0 0 0 0 0 0 0 0 0 0 0
0 0 0 0 0 0 0 0 0 0 0 0 0 0 0 0 0 0 0 0 0 0 0 0 0 0 0 0 0 0 0 0 0 0 0 0 0 0 0 0 0 0 0
0 0 0 0 0 0 0 0 0 0 0 0 0 0 0 0 0 0 0 0 0 0 0 0 0 0 0 0 0 0 0 0 0 0 0 0 0 0 0 0 0 0 0
0 0 0 0 0 0 0 0 0 0 0 0 0 0 0 0 0 0 0 0 0 0 0 0 0 0 0 0 0 0 0 0 0 0 0 0 0 0 0 0 0 0 0
0 0 0 0 0 0 0 0 0 0 0 0 0 0 0 0 0 0 0 0 0 0 0 0 0 0 0 0 0 0 0 0 0 0 0 0 0 0 0 0 0 0 0
0 0 0 0 0 0 0 0 0 0 0 0 0 0 0 0 0 0 0 0 0 0 0 0 0 0 0 0 0 0 0 0 0 0 0 0 0 0 0 0 0 0 0
0 0 0 0 0 0 0 0 0 0 0 0 0 0 0 0 0 0 0 0 0 0 0 0 0 0 0 0 0 0 0 0 0 0 0 0 0 0 0 0 0 0 0
0 0 0 0 0 0 0 0 0 0 0 0 0 0 0 0 0 0 0 0 0 0 0 0 0 0 0 0 0 0 0 0 0 0 0 0 0 0 0 0 0 0 0
0 0 0 0 0 0 0 0 0 0 0 0 0 0 0 0 0 0 0 0 0 0 0 0 0 0 0 0 0 0 0 0 0 0 0 0 0 0 0 0 0 0 0
0 0 0 0 0 0 0 0 0 0 0 0 0 0 0 0 0 0 0 0 0 0 0 0 0 0 0 0 0 0 0 0 0 0 0 0 0 0 0 0 0 0 0
0 0 0 0 0 0 0 0 0 0 0 0 0 0 0 0 0 0 0 0 0 0 0 0 0 0 0 0 0 0 0 0 0 0 0 0 0 0 0 0 0 0 0
0 0 0 0 0 0 0 0 0 0 0 0 0 0 0 0 0 0 0 0 0 0 0 0 0 0 0 0 0 0 0 0 0 0 0 0 0 0 0 0 0 0 0
0 0 0 0 0 0 0 0 0 0 0 0 0 0 0 0 0 0 0 0 0 0 0 0 0 0 0 0 0 0 0 0 0 0 0 0 0 0 0 0 0 0 0
0 0 0 0 0 0 0 0 0 0 0 0 0 0 0 0 0 0 0 0 0 0 0 0 0 0 0 0 0 0 0 0 0 0 0 0 0 0 0 0 0 0 0
0 0 0 0 0 0 0 0 0 0 0 0 0 0 0 0 0 0 0 0 0 0 0 0 0 0 0 0 0 0 0 0 0 0 0 0 0 0 0 0 0 0 0
0 0 0 0 0 0 0 0 0 0 0 0 0 0 0 0 0 0 0 0 0 0 0 0 0 0 0 0 0 0 0 0 0 0 0 0 0 0 0 0 0 0 0
0 0 0 0 0 0 0 0 0 0 0 0 0 0 0 0 0 0 0 0 0 0 0 0 0 0 0 0 0 0 0 0 0 0 0 0 0 0 0 0 0 0 0
0 0 0 0 0 0 0 0 0 0 0 0 0 0 0 0 0 0 0 0 0 0 0 0 0 0 0 0 0 0 0 0 0 0 0 0 0 0 0 0 0 0 0
0 0 0 0 0 0 0 0 0 0 0 0 0 0 0 0 0 0 0 0 0 0 0 0 0 0 0 0 0 0 0 0 0 0 0 0 0 0 0 0 0 0 0
0 0 0 0 0 0 0 0 0 0 0 0 0 0 0 0 0 0 0 0 0 0 0 0 0 0 0 0 0 0 0 0 0 0 0 0 0 0 0 0 0 0 0
Wind_Speed
5 5 5 5 4 4 3 3 2 2 1 1 1 1 1 2 2 2 3 3 3 3 2 2 3 2 2 3 3 2 2 2 2 3 4 5 6 7 7 7 7 9 10
4 5 5 5 5 5 5 4 3 2 1 1 1 1 0 1 2 2 3 4 4 4 3 3 3 3 2 3 2 1 1 2 1 2 3 4 4 3 5 5 6 8 7
8 7 7 7 6 6 6 5 4 3 2 2 1 1 2 2 3 3 3 3 4 4 4 4 3 3 2 3 3 2 2 2 2 1 2 3 3 4 3 4 4 5 5
7 6 7 7 7 7 5 5 4 4 3 2 1 1 1 2 3 2 3 5 4 4 4 4 3 3 2 3 3 2 2 2 2 2 2 3 3 4 5 3 2 4 5
7 7 7 7 6 5 4 4 4 3 3 2 2 2 2 3 3 3 4 5 4 4 4 4 3 3 2 3 3 2 2 2 2 2 2 2 2 3 4 5 4 3 4
5 5 4 4 3 3 3 3 3 3 2 2 2 3 4 4 4 5 4 4 3 4 4 4 3 3 2 3 3 3 3 3 3 3 2 2 2 2 2 4 5 5 4
4 4 4 4 4 4 3 3 3 3 2 3 3 4 5 5 5 5 4 4 3 3 5 4 3 3 3 4 3 3 3 3 4 4 3 3 4 3 3 4 4 5 4
4 5 5 5 5 4 4 3 3 3 3 3 4 4 4 4 4 5 4 4 4 5 6 5 5 5 4 4 3 3 4 3 4 5 4 4 4 3 3 3 3 4 4
4 5 5 4 4 4 3 4 3 4 4 4 5 5 5 4 5 5 4 4 5 5 6 5 5 5 5 5 4 4 5 4 4 5 5 4 4 4 4 4 3 3 4
4 4 4 3 2 2 2 2 3 4 5 5 5 4 5 5 5 4 5 6 6 5 6 6 6 6 6 5 4 5 5 5 5 4 5 5 4 4 4 4 4 4 4
6 4 3 2 2 2 2 3 3 4 5 5 5 5 5 5 5 5 6 6 6 6 6 7 7 7 7 6 5 6 6 6 6 6 6 6 6 4 4 4 4 4 4
4 3 2 2 2 3 3 4 4 5 6 5 5 5 5 5 5 6 7 6 7 7 7 7 7 8 8 7 6 8 7 7 7 7 7 7 6 6 5 4 5 5 5
3 2 2 2 3 4 4 5 5 5 5 4 4 5 5 5 6 7 7 6 7 7 7 7 8 8 8 8 8 8 8 8 8 8 8 8 7 7 6 6 6 5 5
4 4 3 4 4 5 5 5 6 5 5 4 4 5 6 6 6 7 7 7 7 7 8 8 8 9 9 9 9 9 9 8 8 8 8 9 8 9 8 6 7 6 6
5 6 5 5 5 5 5 5 6 5 4 4 5 6 6 6 6 7 7 7 7 8 8 8 9 9 8 8 9 8 9 9 9 8 8 9 11 12 10 7 7 7 6
7 7 7 6 6 6 6 5 6 5 4 5 6 6 6 6 6 7 7 7 8 8 8 8 9 9 8 10 13 11 9 9 10 10 9 9 11 13 14 15 14 11 9
8 8 7 7 7 6 6 6 6 5 4 5 6 6 6 7 7 8 7 8 8 7 8 8 8 9 11 14 15 15 10 10 10 10 9 9 9 11 9 11 13 13 16
8 8 7 7 6 5 5 5 5 4 5 5 6 6 6 7 7 7 8 8 7 7 8 9 9 9 11 13 13 14 10 9 10 11 11 11 10 10 10 10 9 9 9
9 8 8 6 5 6 5 4 5 5 5 6 6 6 6 7 8 8 9 8 7 8 8 8 9 9 11 12 13 11 7 8 10 10 10 11 11 12 13 11 10 10 9
7 7 6 5 5 6 4 4 6 5 7 7 6 6 6 7 8 9 9 7 7 8 8 9 8 9 10 11 12 10 5 7 8 8 9 12 13 13 13 11 10 11 9
8 7 6 6 7 5 4 5 6 7 7 6 6 6 6 7 8 8 7 8 8 8 8 9 9 8 9 10 11 9 4 6 6 6 6 7 11 13 14 12 10 11 9
8 7 6 7 6 5 5 6 8 7 5 5 6 7 7 7 6 7 8 7 7 7 8 7 8 6 6 7 8 9 7 7 7 7 6 6 9 10 11 10 11 13 10
8 7 7 7 6 5 6 8 8 5 5 5 6 7 7 7 7 7 7 7 6 5 6 6 7 7 5 5 8 8 8 8 6 6 8 9 10 9 7 11 12 10 7
8 7 7 7 7 6 7 9 7 5 4 6 6 6 6 7 7 5 5 6 6 6 6 6 6 6 6 5 3 3 4 5 5 4 6 7 7 5 5 5 7 7 7
7 7 8 9 9 7 7 7 6 5 5 6 6 6 6 6 7 6 5 7 7 6 7 7 6 6 7 6 5 4 4 4 4 4 3 3 2 2 3 3 4 5 6
7 7 8 8 8 7 7 7 5 5 5 5 5 5 5 5 5 6 7 8 9 11 11 12 10 8 10 11 10 9 9 8 6 4 3 3 3 3 3 4 4 4 5
Wind_Direction
203 191 186 187 189 200 203 204 189 183 141 89 73 37 344 334 340 338 342 341 341 343 333 317 314 313 288 285 296 293 298 290 297 301 294 278 253 244 243 239 235 229 224
210 208 204 203 206 210 214 215 213 206 195 160 151 161 246 301 293 309 322 331 341 338 334 324 306 297 283 289 290 277 300 296 315 306 309 314 312 274 246 235 235 235 226
212 213 210 215 217 220 217 215 214 212 210 184 112 51 19 350 336 325 320 323 327 324 319 312 302 291 258 261 266 253 238 275 300 266 283 307 310 319 290 251 244 240 230
222 217 213 218 221 225 213 206 208 211 212 180 161 186 239 271 270 280 291 304 309 312 311 308 306 295 270 258 261 240 226 225 267 292 255 250 267 291 310 302 274 261 246
222 220 218 218 219 212 199 200 200 211 210 192 189 208 243 250 275 289 292 297 302 303 304 303 301 301 285 272 264 258 232 220 229 245 267 274 271 257 282 301 319 309 266
223 215 208 195 195 178 173 176 185 218 224 217 217 221 248 267 283 288 289 293 298 300 303 301 293 291 288 287 279 258 243 231 233 239 238 242 261 281 285 294 308 306 294
210 196 187 182 181 177 177 175 183 227 242 242 248 244 248 254 257 267 271 280 288 290 294 302 291 285 282 285 283 272 262 243 236 239 239 237 241 248 259 278 292 298 297
202 194 189 183 183 184 176 174 192 232 250 254 262 263 255 247 251 255 255 261 262 270 278 283 279 276 276 281 278 273 269 255 247 250 244 243 248 243 243 254 289 306 300
197 190 182 180 183 183 187 194 207 239 257 260 265 268 261 251 256 263 261 262 263 271 273 277 279 277 273 268 265 260 267 268 260 257 252 247 250 245 244 244 243 267 296
191 187 183 185 193 202 213 221 226 242 258 263 261 262 260 260 261 266 269 268 269 270 278 279 278 278 276 270 261 259 260 261 262 258 257 253 252 249 243 240 240 235 252
197 198 200 204 215 235 243 253 258 262 269 269 268 271 273 275 275 270 270 272 274 275 274 276 278 278 278 273 262 259 258 254 260 262 258 259 256 251 247 238 237 237 235
195 194 201 211 237 254 261 264 268 269 268 268 270 270 274 280 280 276 275 275 277 278 275 277 278 278 277 271 265 265 264 253 255 257 256 260 261 251 248 238 237 237 233
188 186 206 230 246 257 264 270 272 271 275 274 272 278 280 280 279 279 280 280 279 280 281 278 277 278 278 276 270 263 262 257 252 250 249 253 254 254 249 242 240 238 237
194 202 226 241 250 259 264 270 276 275 278 278 275 276 276 276 277 280 282 281 278 279 279 278 275 275 277 277 274 269 265 262 257 250 246 247 245 246 247 244 240 238 236
212 217 226 238 251 264 269 269 273 277 276 278 276 273 276 278 279 280 282 283 281 281 276 278 277 276 275 270 266 265 268 264 263 257 248 245 245 244 243 239 235 230 229
224 228 232 239 246 251 258 265 269 272 273 271 273 277 281 283 282 283 284 285 285 284 281 277 276 278 274 272 271 272 271 268 265 264 257 250 254 256 253 248 240 224 221
223 226 230 232 238 242 244 252 260 271 273 270 275 279 281 283 285 289 290 287 286 284 285 280 276 275 273 271 273 274 272 267 264 262 259 257 253 245 242 248 251 242 229
221 226 228 232 237 237 241 249 261 267 270 274 276 280 282 284 288 290 288 285 283 283 283 283 280 278 277 275 274 276 274 266 263 259 255 253 253 246 238 242 246 247 240
213 218 219 218 227 237 241 248 263 267 271 271 272 277 279 285 291 291 288 287 287 288 285 282 280 279 281 279 278 278 273 266 266 263 258 251 250 243 233 235 240 244 245
216 217 214 211 228 240 229 236 255 263 264 264 267 274 277 281 286 286 285 284 284 286 289 286 281 276 278 281 281 281 265 266 269 269 263 254 249 243 231 231 230 234 237
215 209 201 210 226 227 209 234 251 255 256 262 270 277 279 280 280 280 280 285 288 290 289 288 286 280 274 281 283 283 261 257 267 269 268 260 250 245 237 227 226 227 225
211 200 200 223 231 217 207 235 248 251 258 262 270 277 281 283 286 284 288 288 286 291 293 293 295 287 278 274 281 285 275 261 258 263 266 265 261 254 243 229 228 224 218
207 197 201 222 235 221 208 231 247 247 250 260 270 279 287 286 282 280 287 294 291 288 292 292 292 294 292 282 276 283 288 282 264 260 263 269 268 260 250 234 225 215 210
206 197 196 217 235 230 222 231 245 243 241 260 275 284 291 295 294 286 279 281 286 290 293 292 290 291 291 288 285 288 292 291 284 280 279 277 272 254 243 232 217 211 207
202 191 198 215 230 231 233 238 237 225 238 258 273 284 284 286 294 294 281 276 270 259 268 279 277 282 288 283 274 277 279 276 279 292 280 267 261 253 242 227 211 204 201
194 198 209 219 230 230 237 240 229 216 230 258 272 277 285 289 291 300 305 280 265 274 267 255 255 261 255 271 281 277 272 272 273 264 259 263 258 253 243 231 217 206 203